This demonstration page uses our WeatherBlox Daily Observations layout. Learn more.

Left ArrowRight Arrow

39.08367, -84.50855

Hourly Observations for February 17, 2016

Temp ( °F °C ) Dew Point ( °F °C ) Humidity (%) Winds ( mph kmh ) Pressure ( in mb ) Visibility ( mi km ) Precip ( " mm )
12:03 am 00:03 Mostly Cloudy with Mist and Fog 25 -4 25 -4 100 100 N N/A 30.00 1016 1 2 N/A
12:24 am 00:24 Mostly Cloudy with Freezing Fog 25 -4 25 -4 100 100 N N/A 30.03 1017 1 1 N/A
12:53 am 00:53 Partly Cloudy with Mist and Fog 25 -3.9 25 -3.9 100 100 S 3 6 30.00 1016 2 3 N/A
1:03 am 01:03 Mostly Cloudy with Mist and Fog 25 -4 25 -4 100 100 SSW 3 6 30.03 1017 3 5 N/A
1:53 am 01:53 Cloudy with Mist and Fog 26 -3.3 26 -3.3 100 100 N N/A 30.01 1016 4 6 N/A
2:53 am 02:53 Cloudy with Mist and Fog 27 -2.8 26 -3.3 96 96 N N/A 30.04 1017 4 6 N/A
3:53 am 03:53 Cloudy with Mist and Fog 28 -2.2 28 -2.2 100 100 N N/A 30.06 1018 5 8 N/A
4:49 am 04:49 Cloudy 30 -1 27 -3 86 86 WNW 6 9 30.09 1019 8 13 N/A
4:53 am 04:53 Cloudy 31 -0.6 27 -2.8 85 85 WNW 5 7 30.08 1019 8 13 N/A
5:21 am 05:21 Cloudy 31 -0.6 27 -2.8 85 85 WNW 6 9 30.12 1020 8 13 N/A
5:46 am 05:46 Cloudy 30 -1 27 -3 86 86 W 5 7 30.12 1020 8 13 N/A
5:53 am 05:53 Cloudy 31 -0.6 27 -2.8 85 85 W 3 6 30.10 1019 8 13 N/A
6:53 am 06:53 Cloudy 32 undefined 28 -2.2 85 85 N N/A 30.12 1020 7 11 N/A
7:44 am 07:44 Cloudy with Light Snow 32 undefined 28 -2 87 87 W 5 7 30.18 1022 3 4 N/A
7:53 am 07:53 Cloudy with Light Snow 32 undefined 29 -1.7 88 88 W 3 6 30.16 1021 3 5 N/A
8:35 am 08:35 Cloudy with Mist and Fog 32 undefined 29 -1.7 88 88 W 5 7 30.21 1023 4 6 N/A
8:53 am 08:53 Cloudy with Mist and Fog 33 0.6 29 -1.7 85 85 WNW 5 7 30.20 1023 5 8 N/A
9:20 am 09:20 Cloudy with Mist and Fog 34 1 28 -2 81 81 W 6 9 30.24 1024 5 8 N/A
9:53 am 09:53 Cloudy 33 0.6 28 -2.2 82 82 NW 5 7 30.22 1024 7 11 N/A
10:53 am 10:53 Cloudy 34 1.1 28 -2.2 79 79 NW 5 7 30.26 1025 9 14 N/A
11:53 am 11:53 Cloudy 35 1.7 27 -2.8 72 72 WNW 6 9 30.27 1025 10 16 N/A
12:53 pm 12:53 Cloudy 36 2.2 28 -2.2 73 73 WNW 6 9 30.27 1025 10 16 N/A
1:26 pm 13:26 Cloudy 36 2 27 -3 70 70 W 8 13 30.24 1024 10 16 N/A
1:37 pm 13:37 Cloudy 36 2.2 27 -2.8 70 70 WSW 6 9 30.24 1024 10 16 N/A
1:48 pm 13:48 Cloudy 36 2 28 -2 75 75 SW 6 9 30.24 1024 10 16 N/A
1:53 pm 13:53 Cloudy 36 2.2 27 -2.8 70 70 SW 5 7 30.27 1025 10 16 N/A
2:53 pm 14:53 Cloudy 37 2.8 26 -3.3 65 65 W 7 11 30.27 1025 10 16 N/A
3:53 pm 15:53 Cloudy 37 2.8 25 -3.9 62 62 N N/A 30.29 1026 10 16 N/A
4:53 pm 16:53 Cloudy 36 2.2 26 -3.3 67 67 SW 5 7 30.32 1027 10 16 N/A
5:53 pm 17:53 Cloudy 36 2.2 25 -3.9 64 64 WSW 7 11 30.34 1027 10 16 N/A
6:53 pm 18:53 Cloudy 36 2.2 25 -3.9 64 64 N N/A 30.35 1028 10 16 N/A
7:53 pm 19:53 Cloudy 34 1.1 27 -2.8 76 76 N N/A 30.36 1028 10 16 N/A
8:53 pm 20:53 Cloudy 35 1.7 24 -4.4 64 64 NW 3 6 30.38 1029 10 16 N/A
9:53 pm 21:53 Cloudy 34 1.1 24 -4.4 67 67 W 5 7 30.39 1029 10 16 N/A
10:53 pm 22:53 Cloudy 32 undefined 25 -3.9 75 75 N N/A 30.38 1029 10 16 N/A
11:53 pm 23:53 Cloudy 31 -0.6 26 -3.3 82 82 S 3 6 30.40 1029 10 16 N/A

Powered by AerisWeather